﻿_id,日時,平均風速(m/s),平均風向,最大瞬間風速(m/s),最大風速時風向,気温(℃),湿度(%),10分間移動積算雨量(mm),1時間移動積算雨量(mm),日雨量(mm),累計雨量(mm)
1,2022-11-14T00:00:00,2.8,北北西,5.8,北北西,12.8,89.2,0,0,1.5,1.5
2,2022-11-14T00:01:00,3,北北西,5.8,北北西,12.8,88.2,0,0,0,1.5
3,2022-11-14T00:02:00,2.9,北北西,5.7,北西,12.8,87.5,0,0,0,1.5
4,2022-11-14T00:03:00,2.9,北北西,5.7,北西,12.7,87.4,0,0,0,1.5
5,2022-11-14T00:04:00,2.8,北北西,5.7,北西,12.7,87.9,0,0,0,1.5
6,2022-11-14T00:05:00,2.7,北北西,5.7,北西,12.7,88,0,0,0,1.5
7,2022-11-14T00:06:00,2.7,北北西,5.7,北西,12.7,87.9,0,0,0,1.5
8,2022-11-14T00:07:00,2.8,北北西,5.7,北西,12.6,88,0,0,0,1.5
9,2022-11-14T00:08:00,2.9,北北西,5.7,北西,12.6,88.2,0,0,0,1.5
10,2022-11-14T00:09:00,2.9,北北西,5.7,北西,12.6,88.5,0,0,0,1.5
11,2022-11-14T00:10:00,2.9,北北西,5.7,北西,12.5,88.7,0,0,0,1.5
12,2022-11-14T00:11:00,2.9,北北西,6.7,北北西,12.5,89,0,0,0,1.5
13,2022-11-14T00:12:00,3,北北西,6.7,北北西,12.5,89.2,0,0,0,1.5
14,2022-11-14T00:13:00,3.2,北北西,6.7,北北西,12.4,89.5,0,0,0,1.5
15,2022-11-14T00:14:00,3.5,北北西,6.7,北北西,12.5,89.3,0,0,0,1.5
16,2022-11-14T00:15:00,3.7,北北西,6.7,北北西,12.5,89.2,0,0,0,1.5
17,2022-11-14T00:16:00,3.7,北北西,6.7,北北西,12.4,89,0,0,0,1.5
18,2022-11-14T00:17:00,3.6,北北西,6.7,北北西,12.4,89,0,0,0,1.5
19,2022-11-14T00:18:00,3.6,北北西,6.7,北北西,12.3,89.2,0,0,0,1.5
20,2022-11-14T00:19:00,3.7,北北西,6.7,北北西,12.2,89.7,0,0,0,1.5
21,2022-11-14T00:20:00,3.7,北北西,6.7,北北西,12.2,90.5,0,0,0,1.5
22,2022-11-14T00:21:00,3.6,北西,6.7,北西,12.2,91,0,0,0,1.5
23,2022-11-14T00:22:00,3.6,北西,6.7,北西,12.2,91.4,0,0,0,1.5
24,2022-11-14T00:23:00,3.5,北西,6.7,北西,12.2,91.8,0,0,0,1.5
25,2022-11-14T00:24:00,3.5,北西,6.4,北西,12.2,92.1,0,0,0,1.5
26,2022-11-14T00:25:00,3.6,北西,6.4,北西,12.3,91.8,0,0,0,1.5
27,2022-11-14T00:26:00,3.7,北西,6.4,北西,12.2,91.5,0,0,0,1.5
28,2022-11-14T00:27:00,3.9,北西,7.1,西北西,12.2,91.6,0,0,0,1.5
29,2022-11-14T00:28:00,4,北西,7.1,西北西,12.3,91.8,0,0,0,1.5
30,2022-11-14T00:29:00,4.1,北西,7.1,西北西,12.3,91.4,0,0,0,1.5
31,2022-11-14T00:30:00,4.3,北西,7.1,西北西,12.3,91,0,0,0,1.5
32,2022-11-14T00:31:00,4.4,北西,7.1,西北西,12.3,90.5,0,0,0,1.5
33,2022-11-14T00:32:00,4.5,北西,7.1,西北西,12.3,90.3,0,0,0,1.5
34,2022-11-14T00:33:00,4.4,北西,7.1,西北西,12.3,90.2,0,0,0,1.5
35,2022-11-14T00:34:00,4.5,北西,8.1,北西,12.3,90,0,0,0,1.5
36,2022-11-14T00:35:00,4.7,北西,8.5,北西,12.4,90,0,0,0,1.5
37,2022-11-14T00:36:00,4.7,北西,8.5,北西,12.5,89.5,0,0,0,1.5
38,2022-11-14T00:37:00,4.6,北西,8.5,北西,12.5,88.5,0,0,0,1.5
39,2022-11-14T00:38:00,4.5,北北西,8.5,北西,12.4,88,0,0,0,1.5
40,2022-11-14T00:39:00,4.5,北北西,8.5,北西,12.5,87.8,0,0,0,1.5
41,2022-11-14T00:40:00,4.3,北北西,8.5,北西,12.5,87.5,0,0,0,1.5
42,2022-11-14T00:41:00,4.2,北北西,8.5,北西,12.4,87.6,0,0,0,1.5
43,2022-11-14T00:42:00,4,北北西,8.5,北西,12.3,87.7,0,0,0,1.5
44,2022-11-14T00:43:00,3.9,北北西,8.5,北西,12.3,88.2,0,0,0,1.5
45,2022-11-14T00:44:00,3.6,北北西,8.5,北西,12.4,88.2,0,0,0,1.5
46,2022-11-14T00:45:00,3.3,北北西,5.9,北西,12.4,87.9,0,0,0,1.5
47,2022-11-14T00:46:00,3.1,北北西,5.9,北西,12.3,87.8,0,0,0,1.5
48,2022-11-14T00:47:00,3.1,北北西,5.9,北西,12.3,88,0,0,0,1.5
49,2022-11-14T00:48:00,3,北北西,5.9,北西,12.3,88,0,0,0,1.5
50,2022-11-14T00:49:00,2.8,北北西,5.3,北北西,12.3,88.3,0,0,0,1.5
51,2022-11-14T00:50:00,2.7,北北西,5.3,北北西,12.2,88.8,0,0,0,1.5
52,2022-11-14T00:51:00,2.5,北北西,5.3,北北西,12.2,89.2,0,0,0,1.5
53,2022-11-14T00:52:00,2.4,北北西,4.7,北東,12.2,89.8,0,0,0,1.5
54,2022-11-14T00:53:00,2.5,北北西,5,北西,12.1,90,0,0,0,1.5
55,2022-11-14T00:54:00,2.6,北北西,5,北西,12.2,89.9,0,0,0,1.5
56,2022-11-14T00:55:00,2.7,北北西,5,北西,12.2,89.7,0,0,0,1.5
57,2022-11-14T00:56:00,2.7,北北西,5,北西,12.2,89.4,0,0,0,1.5
58,2022-11-14T00:57:00,2.6,北北西,5,北西,12.2,89.2,0,0,0,1.5
59,2022-11-14T00:58:00,2.7,北北西,5.8,北,12.2,89.3,0,0,0,1.5
60,2022-11-14T00:59:00,2.7,北北西,5.8,北,12.1,89.2,0,0,0,1.5
61,2022-11-14T01:00:00,2.8,北北西,5.8,北,12.1,89.2,0,0,0,1.5
62,2022-11-14T01:01:00,2.8,北北西,5.8,北,12.1,89.4,0,0,0,1.5
63,2022-11-14T01:02:00,2.8,北北西,5.8,北,12,89.6,0,0,0,1.5
64,2022-11-14T01:03:00,2.7,北北西,5.8,北,12,89.9,0,0,0,1.5
65,2022-11-14T01:04:00,2.5,北,5.8,北,11.9,90.2,0,0,0,1.5
66,2022-11-14T01:05:00,2.5,北,5.8,北,11.9,90.7,0,0,0,1.5
67,2022-11-14T01:06:00,2.3,北北西,5.8,北,11.8,91,0,0,0,1.5
68,2022-11-14T01:07:00,2.2,北北西,5.8,北,11.9,91.3,0,0,0,1.5
69,2022-11-14T01:08:00,2,北北西,4.4,北,11.8,91.5,0,0,0,1.5
70,2022-11-14T01:09:00,1.9,北北西,3.6,北,11.8,91.5,0,0,0,1.5
71,2022-11-14T01:10:00,1.7,北北西,3.1,北西,11.9,91.9,0,0,0,1.5
72,2022-11-14T01:11:00,1.6,北北西,3.1,北西,11.8,92.1,0,0,0,1.5
73,2022-11-14T01:12:00,1.6,北北西,3.1,北西,11.8,92.2,0,0,0,1.5
74,2022-11-14T01:13:00,1.6,北北西,3.1,北西,11.8,92.5,0,0,0,1.5
75,2022-11-14T01:14:00,1.6,北北西,3.6,北北西,11.8,92.6,0,0,0,1.5
76,2022-11-14T01:15:00,1.7,北北西,3.6,北北西,11.8,92.7,0,0,0,1.5
77,2022-11-14T01:16:00,1.8,北,6.8,北西,11.9,92.7,0,0,0,1.5
78,2022-11-14T01:17:00,2.1,北北西,6.8,北西,11.9,92.8,0,0,0,1.5
79,2022-11-14T01:18:00,2.2,北,6.8,北西,11.9,92.3,0,0,0,1.5
80,2022-11-14T01:19:00,2.4,北,6.8,北西,11.9,92.1,0,0,0,1.5
81,2022-11-14T01:20:00,2.7,北北西,6.8,北西,11.9,92,0,0,0,1.5
82,2022-11-14T01:21:00,3.1,北北西,6.8,北西,11.9,91.7,0,0,0,1.5
83,2022-11-14T01:22:00,3.3,北北西,7.3,北北西,11.9,91.7,0,0,0,1.5
84,2022-11-14T01:23:00,3.4,北北西,7.3,北北西,11.9,91.5,0,0,0,1.5
85,2022-11-14T01:24:00,3.3,北北西,7.3,北北西,11.9,91.2,0,0,0,1.5
86,2022-11-14T01:25:00,3.3,北北西,7.3,北北西,11.9,91.1,0,0,0,1.5
87,2022-11-14T01:26:00,3.3,北北西,7.3,北北西,11.9,91.2,0,0,0,1.5
88,2022-11-14T01:27:00,3.2,北北西,7.3,北北西,11.9,91.3,0,0,0,1.5
89,2022-11-14T01:28:00,3.2,北北西,7.3,北北西,11.9,91.4,0,0,0,1.5
90,2022-11-14T01:29:00,3.2,北北西,7.3,北北西,11.9,91.4,0,0,0,1.5
91,2022-11-14T01:30:00,3.1,北北西,7.3,北北西,11.9,91.4,0,0,0,1.5
92,2022-11-14T01:31:00,2.8,北北西,7.3,北北西,11.9,91.6,0,0,0,1.5
93,2022-11-14T01:32:00,2.7,北北西,5.2,北北西,11.9,91.7,0,0,0,1.5
94,2022-11-14T01:33:00,2.8,北北西,5.3,北北西,11.9,91.6,0,0,0,1.5
95,2022-11-14T01:34:00,2.9,北北西,5.3,北北西,12,91.4,0,0,0,1.5
96,2022-11-14T01:35:00,2.8,北北西,5.3,北北西,12,91,0,0,0,1.5
97,2022-11-14T01:36:00,2.7,北北西,5.3,北北西,11.9,90.8,0,0,0,1.5
98,2022-11-14T01:37:00,2.6,北北西,5.3,北北西,11.9,90.7,0,0,0,1.5
99,2022-11-14T01:38:00,2.6,北北西,5.3,北北西,11.9,90.9,0,0,0,1.5
100,2022-11-14T01:39:00,2.7,北北西,5.3,北北西,11.8,91.1,0,0,0,1.5
101,2022-11-14T01:40:00,2.8,北北西,5.3,北北西,11.9,91,0,0,0,1.5
102,2022-11-14T01:41:00,2.9,北北西,5.3,北北西,11.9,91,0,0,0,1.5
103,2022-11-14T01:42:00,2.8,北北西,5.3,北北西,11.9,90.7,0,0,0,1.5
104,2022-11-14T01:43:00,2.7,北北西,5.3,北,11.9,90.3,0,0,0,1.5
105,2022-11-14T01:44:00,2.7,北北西,5.3,北,11.9,90.3,0,0,0,1.5
106,2022-11-14T01:45:00,2.8,北北西,5.3,北,11.9,90.3,0,0,0,1.5
107,2022-11-14T01:46:00,3,北北西,5.3,北,11.9,90,0,0,0,1.5
108,2022-11-14T01:47:00,3.2,北北西,5.3,北,12,89.4,0,0,0,1.5
109,2022-11-14T01:48:00,3.1,北北西,5.3,北西,12,88.6,0,0,0,1.5
110,2022-11-14T01:49:00,3,北北西,5.7,北,12,88.1,0,0,0,1.5
111,2022-11-14T01:50:00,3,北北西,5.7,北,12,87.7,0,0,0,1.5
112,2022-11-14T01:51:00,3.1,北北西,5.7,北,12,87.2,0,0,0,1.5
113,2022-11-14T01:52:00,3.2,北北西,5.7,北,12.1,86.7,0,0,0,1.5
114,2022-11-14T01:53:00,3.3,北西,5.7,北,12.2,85.5,0,0,0,1.5
115,2022-11-14T01:54:00,3.4,北西,5.7,北,12.2,84.4,0,0,0,1.5
116,2022-11-14T01:55:00,3.3,北西,5.7,北,12.1,84.4,0,0,0,1.5
117,2022-11-14T01:56:00,3.3,北西,5.7,北,12.1,84.9,0,0,0,1.5
118,2022-11-14T01:57:00,3.1,北西,5.7,北,12,85,0,0,0,1.5
119,2022-11-14T01:58:00,3.2,北西,5.7,北,12,85.6,0,0,0,1.5
120,2022-11-14T01:59:00,3.2,北西,5.4,西北西,12,86,0,0,0,1.5
121,2022-11-14T02:00:00,3.2,北西,5.4,西北西,11.9,85.9,0,0,0,1.5
122,2022-11-14T02:01:00,3.1,北西,5.4,西北西,12,85.9,0,0,0,1.5
123,2022-11-14T02:02:00,3,北北西,4.8,北北西,11.9,85.9,0,0,0,1.5
124,2022-11-14T02:03:00,2.9,北北西,4.8,北北西,11.8,86.5,0,0,0,1.5
125,2022-11-14T02:04:00,2.8,北北西,4.8,北北西,11.7,87.2,0,0,0,1.5
126,2022-11-14T02:05:00,2.7,北北西,4.8,北北西,11.7,87.7,0,0,0,1.5
127,2022-11-14T02:06:00,2.6,北北西,4.8,北北西,11.7,88.2,0,0,0,1.5
128,2022-11-14T02:07:00,2.6,北北西,4.8,北北西,11.7,88.8,0,0,0,1.5
129,2022-11-14T02:08:00,2.7,北北西,5.5,北北西,11.7,89.1,0,0,0,1.5
130,2022-11-14T02:09:00,2.6,北北西,5.5,北北西,11.7,89.1,0,0,0,1.5
131,2022-11-14T02:10:00,2.5,北北西,5.5,北北西,11.7,88.9,0,0,0,1.5
132,2022-11-14T02:11:00,2.4,北北西,5.5,北北西,11.7,88.8,0,0,0,1.5
133,2022-11-14T02:12:00,2.4,北北西,5.5,北北西,11.6,88.6,0,0,0,1.5
134,2022-11-14T02:13:00,2.4,北北西,5.5,北北西,11.6,88.5,0,0,0,1.5
135,2022-11-14T02:14:00,2.5,北北西,5.5,北北西,11.5,88.9,0,0,0,1.5
136,2022-11-14T02:15:00,2.7,北北西,5.5,北北西,11.5,89.3,0,0,0,1.5
137,2022-11-14T02:16:00,2.8,北北西,5.5,北北西,11.5,89.9,0,0,0,1.5
138,2022-11-14T02:17:00,2.8,北北西,5.5,北北西,11.5,90.3,0,0,0,1.5
139,2022-11-14T02:18:00,2.6,北北西,4.9,北,11.5,90.2,0,0,0,1.5
140,2022-11-14T02:19:00,2.5,北北西,4.6,北,11.5,90.1,0,0,0,1.5
141,2022-11-14T02:20:00,2.4,北北西,4.6,北,11.5,90.2,0,0,0,1.5
142,2022-11-14T02:21:00,2.7,北北西,4.9,北北西,11.5,89.9,0,0,0,1.5
143,2022-11-14T02:22:00,2.7,北北西,4.9,北北西,11.5,89.9,0,0,0,1.5
144,2022-11-14T02:23:00,2.7,北北西,4.9,北北西,11.5,89.9,0,0,0,1.5
145,2022-11-14T02:24:00,2.7,北北西,4.9,北北西,11.4,89.8,0,0,0,1.5
146,2022-11-14T02:25:00,2.6,北北西,4.9,北北西,11.4,90,0,0,0,1.5
147,2022-11-14T02:26:00,2.6,北西,4.9,北北西,11.5,90.3,0,0,0,1.5
148,2022-11-14T02:27:00,2.6,北北西,4.9,北北西,11.5,90.5,0,0,0,1.5
149,2022-11-14T02:28:00,2.7,北北西,4.9,北北西,11.5,90.5,0,0,0,1.5
150,2022-11-14T02:29:00,2.7,北西,4.9,北北西,11.4,90.4,0,0,0,1.5
151,2022-11-14T02:30:00,2.8,北西,4.9,北北西,11.4,90.7,0,0,0,1.5
152,2022-11-14T02:31:00,2.7,北西,4.2,西北西,11.5,90.9,0,0,0,1.5
153,2022-11-14T02:32:00,2.7,北西,4.4,北北西,11.6,90.4,0,0,0,1.5
154,2022-11-14T02:33:00,2.8,北北西,5,北西,11.7,89.6,0,0,0,1.5
155,2022-11-14T02:34:00,2.9,北北西,5,北西,11.7,89,0,0,0,1.5
156,2022-11-14T02:35:00,2.8,北北西,5,北西,11.6,88.7,0,0,0,1.5
157,2022-11-14T02:36:00,3,北北西,5,北西,11.6,88.7,0,0,0,1.5
158,2022-11-14T02:37:00,3,北北西,5.1,北北西,11.6,88.8,0,0,0,1.5
159,2022-11-14T02:38:00,3.1,北北西,5.9,北西,11.6,88.8,0,0,0,1.5
160,2022-11-14T02:39:00,3.2,北北西,5.9,北西,11.7,88.7,0,0,0,1.5
161,2022-11-14T02:40:00,3.4,北北西,5.9,北西,11.8,88,0,0,0,1.5
162,2022-11-14T02:41:00,3.4,北北西,5.9,北西,11.8,87.1,0,0,0,1.5
163,2022-11-14T02:42:00,3.5,北北西,5.9,北西,11.7,86.7,0,0,0,1.5
164,2022-11-14T02:43:00,3.5,北西,5.9,北西,11.6,86.8,0,0,0,1.5
165,2022-11-14T02:44:00,3.5,北西,5.9,北西,11.6,87.2,0,0,0,1.5
166,2022-11-14T02:45:00,3.6,北西,5.9,北西,11.6,87.6,0,0,0,1.5
167,2022-11-14T02:46:00,3.7,北西,5.9,北西,11.6,87.8,0,0,0,1.5
168,2022-11-14T02:47:00,3.9,北西,6.8,北西,11.7,87.7,0,0,0,1.5
169,2022-11-14T02:48:00,4,北西,6.8,北西,11.7,87,0,0,0,1.5
170,2022-11-14T02:49:00,4,北西,6.8,北西,11.7,86.3,0,0,0,1.5
171,2022-11-14T02:50:00,4.1,北西,7.7,北西,11.6,86.3,0,0,0,1.5
172,2022-11-14T02:51:00,4.2,北西,7.7,北西,11.6,86.5,0,0,0,1.5
173,2022-11-14T02:52:00,4.2,北西,7.7,北西,11.6,86.6,0,0,0,1.5
174,2022-11-14T02:53:00,4.3,北西,7.7,北西,11.7,86.7,0,0,0,1.5
175,2022-11-14T02:54:00,4.4,北西,7.7,北西,11.7,86.2,0,0,0,1.5
176,2022-11-14T02:55:00,4.4,北西,7.7,北西,11.7,85.8,0,0,0,1.5
177,2022-11-14T02:56:00,4.3,北西,7.7,北西,11.7,85.7,0,0,0,1.5
178,2022-11-14T02:57:00,4.2,北西,7.7,北西,11.6,86.1,0,0,0,1.5
179,2022-11-14T02:58:00,4,北西,7.7,北西,11.6,86.3,0,0,0,1.5
180,2022-11-14T02:59:00,4,北西,7.7,北西,11.5,86.6,0,0,0,1.5
181,2022-11-14T03:00:00,3.8,北西,6.2,北西,11.5,87.2,0,0,0,1.5
182,2022-11-14T03:01:00,3.7,北西,6.2,北西,11.6,87.4,0,0,0,1.5
183,2022-11-14T03:02:00,3.7,北西,7.6,北北西,11.5,87.5,0,0,0,1.5
184,2022-11-14T03:03:00,3.7,北西,7.6,北北西,11.5,87.6,0,0,0,1.5
185,2022-11-14T03:04:00,3.6,北西,7.6,北北西,11.5,87.7,0,0,0,1.5
186,2022-11-14T03:05:00,3.8,北西,7.7,西北西,11.6,87.9,0,0,0,1.5
187,2022-11-14T03:06:00,3.9,北西,7.7,西北西,11.8,87.5,0,0,0,1.5
188,2022-11-14T03:07:00,3.9,北西,7.7,西北西,11.8,86.5,0,0,0,1.5
189,2022-11-14T03:08:00,4.1,北西,7.7,西北西,11.7,85.8,0,0,0,1.5
190,2022-11-14T03:09:00,4,北西,7.7,西北西,11.6,85.8,0,0,0,1.5
191,2022-11-14T03:10:00,4,北西,7.7,西北西,11.6,86,0,0,0,1.5
192,2022-11-14T03:11:00,4,北西,7.7,西北西,11.6,86.2,0,0,0,1.5
193,2022-11-14T03:12:00,3.9,北西,7.7,西北西,11.7,86.2,0,0,0,1.5
194,2022-11-14T03:13:00,3.8,北西,7.7,西北西,11.7,85.9,0,0,0,1.5
195,2022-11-14T03:14:00,3.7,北西,7.7,西北西,11.7,85.6,0,0,0,1.5
196,2022-11-14T03:15:00,3.4,北西,6.1,北西,11.7,85.5,0,0,0,1.5
197,2022-11-14T03:16:00,3.4,北西,6.1,北西,11.6,85.7,0,0,0,1.5
198,2022-11-14T03:17:00,3.3,北西,6.1,北西,11.6,85.9,0,0,0,1.5
199,2022-11-14T03:18:00,3.1,北西,5.8,北西,11.6,86,0,0,0,1.5
200,2022-11-14T03:19:00,3.1,北西,5.8,北西,11.5,86.3,0,0,0,1.5
201,2022-11-14T03:20:00,3.1,北西,5.8,北西,11.6,86.5,0,0,0,1.5
202,2022-11-14T03:21:00,3.2,北西,6.8,西北西,11.7,86.1,0,0,0,1.5
203,2022-11-14T03:22:00,3.4,北西,6.8,西北西,11.7,85.3,0,0,0,1.5
204,2022-11-14T03:23:00,3.4,北西,6.8,西北西,11.7,84.4,0,0,0,1.5
205,2022-11-14T03:24:00,3.5,北西,6.8,西北西,11.7,84.1,0,0,0,1.5
206,2022-11-14T03:25:00,3.6,北西,6.8,西北西,11.6,84.3,0,0,0,1.5
207,2022-11-14T03:26:00,3.4,北西,6.8,西北西,11.6,84.6,0,0,0,1.5
208,2022-11-14T03:27:00,3.5,北西,6.8,西北西,11.6,85,0,0,0,1.5
209,2022-11-14T03:28:00,3.6,北西,6.8,西北西,11.6,85.1,0,0,0,1.5
210,2022-11-14T03:29:00,3.6,北西,6.8,西北西,11.5,85.1,0,0,0,1.5
211,2022-11-14T03:30:00,3.8,北西,6.8,西北西,11.5,85.4,0,0,0,1.5
212,2022-11-14T03:31:00,3.7,北西,7.9,西北西,11.7,84.9,0,0,0,1.5
213,2022-11-14T03:32:00,3.7,北西,7.9,西北西,11.8,83.6,0,0,0,1.5
214,2022-11-14T03:33:00,3.5,北西,7.9,西北西,11.7,83,0,0,0,1.5
215,2022-11-14T03:34:00,3.5,北西,7.9,西北西,11.7,83.3,0,0,0,1.5
216,2022-11-14T03:35:00,3.5,北西,7.9,西北西,11.7,83.2,0,0,0,1.5
217,2022-11-14T03:36:00,3.6,北西,7.9,西北西,11.7,83.1,0,0,0,1.5
218,2022-11-14T03:37:00,3.5,北西,7.9,西北西,11.6,83.4,0,0,0,1.5
219,2022-11-14T03:38:00,3.4,北西,7.9,西北西,11.6,84.1,0,0,0,1.5
220,2022-11-14T03:39:00,3.4,北西,7.9,西北西,11.5,84.7,0,0,0,1.5
221,2022-11-14T03:40:00,3.3,北西,7.9,西北西,11.6,84.9,0,0,0,1.5
222,2022-11-14T03:41:00,3.1,北西,6.2,北北西,11.7,84.5,0,0,0,1.5
223,2022-11-14T03:42:00,3,北西,6.2,北北西,11.7,83.6,0,0,0,1.5
224,2022-11-14T03:43:00,3.1,北西,6.2,北北西,11.7,83.2,0,0,0,1.5
225,2022-11-14T03:44:00,3.3,北西,6.2,北北西,11.7,83.1,0,0,0,1.5
226,2022-11-14T03:45:00,3.2,北北西,6.2,北北西,11.7,82.9,0,0,0,1.5
227,2022-11-14T03:46:00,3.2,北北西,6.2,北北西,11.7,82.8,0,0,0,1.5
228,2022-11-14T03:47:00,3.2,北西,6.2,北北西,11.6,82.9,0,0,0,1.5
229,2022-11-14T03:48:00,3.4,北西,6.2,北北西,11.7,82.9,0,0,0,1.5
230,2022-11-14T03:49:00,3.4,北西,5.1,北西,11.7,82.3,0,0,0,1.5
231,2022-11-14T03:50:00,3.4,北西,5.1,北西,11.8,82,0,0,0,1.5
232,2022-11-14T03:51:00,3.3,北西,5.1,北西,11.8,81.5,0,0,0,1.5
233,2022-11-14T03:52:00,3.3,北西,5.1,北西,11.8,81.6,0,0,0,1.5
234,2022-11-14T03:53:00,3.3,北西,5.1,北西,11.7,81.6,0,0,0,1.5
235,2022-11-14T03:54:00,3.2,北西,5,北西,11.7,82,0,0,0,1.5
236,2022-11-14T03:55:00,3.2,北西,5.6,北西,11.7,81.8,0,0,0,1.5
237,2022-11-14T03:56:00,3.2,北西,5.6,北西,11.8,81.3,0,0,0,1.5
238,2022-11-14T03:57:00,3.1,北西,5.6,北西,11.8,80.8,0,0,0,1.5
239,2022-11-14T03:58:00,2.8,北西,5.6,北西,11.7,81.4,0,0,0,1.5
240,2022-11-14T03:59:00,2.7,北西,5.6,北西,11.5,82.6,0,0,0,1.5
241,2022-11-14T04:00:00,2.6,北北西,5.6,北西,11.4,83.5,0,0,0,1.5
242,2022-11-14T04:01:00,2.5,北北西,5.6,北西,11.4,84.4,0,0,0,1.5
243,2022-11-14T04:02:00,2.5,北西,5.6,北西,11.4,85,0.5,0.5,0.5,2
244,2022-11-14T04:03:00,2.4,北西,5.6,北西,11.6,84.3,0.5,0.5,0.5,2
245,2022-11-14T04:04:00,2.3,北西,5.6,北西,11.7,83,0.5,0.5,0.5,2
246,2022-11-14T04:05:00,2.3,北西,4.5,北西,11.7,82.2,0.5,0.5,0.5,2
247,2022-11-14T04:06:00,2.3,北西,4.5,北西,11.6,82,0.5,0.5,0.5,2
248,2022-11-14T04:07:00,2.3,北西,4.5,北西,11.6,82.2,0.5,0.5,0.5,2
249,2022-11-14T04:08:00,2.4,北北西,4.5,北西,11.5,83,0.5,0.5,0.5,2
250,2022-11-14T04:09:00,2.5,北北西,4.5,北西,11.3,84.2,0.5,0.5,0.5,2
251,2022-11-14T04:10:00,2.6,北西,4.5,北西,11.2,85.2,0.5,0.5,0.5,2
252,2022-11-14T04:11:00,2.7,北西,4.5,北西,11.4,86,0.5,0.5,0.5,2
253,2022-11-14T04:12:00,2.8,北西,4.7,北西,11.5,85.4,0,0.5,0.5,2
254,2022-11-14T04:13:00,2.9,北西,4.7,北西,11.7,83.8,0,0.5,0.5,2
255,2022-11-14T04:14:00,3,北西,4.7,北西,11.7,82,0,0.5,0.5,2
256,2022-11-14T04:15:00,3.1,北西,5,西北西,11.7,81.1,0,0.5,0.5,2
257,2022-11-14T04:16:00,3.1,北西,6,西,11.8,80.3,0,0.5,0.5,2
258,2022-11-14T04:17:00,3.2,北西,6,西,11.7,80.1,0,0.5,0.5,2
259,2022-11-14T04:18:00,3.3,北西,6,西,11.7,80.4,0,0.5,0.5,2
260,2022-11-14T04:19:00,3.3,北西,6,西,11.6,80.7,0,0.5,0.5,2
261,2022-11-14T04:20:00,3.3,北西,6,西,11.6,81.1,0,0.5,0.5,2
262,2022-11-14T04:21:00,3.3,北西,6,西,11.6,81.2,0,0.5,0.5,2
263,2022-11-14T04:22:00,3.2,北西,6,西,11.6,81.3,0,0.5,0.5,2
264,2022-11-14T04:23:00,3.3,北西,6,西,11.7,81,0,0.5,0.5,2
265,2022-11-14T04:24:00,3.4,北西,6,西,11.8,79.8,0,0.5,0.5,2
266,2022-11-14T04:25:00,3.3,北西,6,西,11.8,79,0,0.5,0.5,2
267,2022-11-14T04:26:00,3.3,北西,5.4,北西,11.7,79.1,0,0.5,0.5,2
268,2022-11-14T04:27:00,3.4,北西,5.4,北西,11.8,79.1,0,0.5,0.5,2
269,2022-11-14T04:28:00,3.4,北西,5.4,北西,11.7,78.8,0,0.5,0.5,2
270,2022-11-14T04:29:00,3.5,北西,5.4,北西,11.6,79,0,0.5,0.5,2
271,2022-11-14T04:30:00,3.4,北西,5.4,北西,11.7,79.3,0,0.5,0.5,2
272,2022-11-14T04:31:00,3.4,北西,5.4,北西,11.7,79.1,0,0.5,0.5,2
273,2022-11-14T04:32:00,3.4,北西,5.4,北西,11.7,78.8,0,0.5,0.5,2
274,2022-11-14T04:33:00,3.3,北西,5.4,北西,11.7,78.9,0,0.5,0.5,2
275,2022-11-14T04:34:00,3.1,北西,5.1,西北西,11.6,79.8,0,0.5,0.5,2
276,2022-11-14T04:35:00,3,北西,5.1,西北西,11.6,80.2,0,0.5,0.5,2
277,2022-11-14T04:36:00,3,北西,5.1,西北西,11.7,79.8,0,0.5,0.5,2
278,2022-11-14T04:37:00,3,北西,4.8,北北西,11.7,79.3,0,0.5,0.5,2
279,2022-11-14T04:38:00,2.9,北西,5.1,北西,11.7,78.9,0,0.5,0.5,2
280,2022-11-14T04:39:00,2.9,北西,5.1,北西,11.7,78.6,0,0.5,0.5,2
281,2022-11-14T04:40:00,2.9,北西,5.1,北西,11.8,78,0,0.5,0.5,2
282,2022-11-14T04:41:00,3,北西,5.1,北西,11.8,77.6,0,0.5,0.5,2
283,2022-11-14T04:42:00,3,北西,5.1,北西,11.8,77.5,0,0.5,0.5,2
284,2022-11-14T04:43:00,3,北西,5.1,北西,11.7,77.7,0,0.5,0.5,2
285,2022-11-14T04:44:00,3.1,北西,5.1,北西,11.7,78.4,0,0.5,0.5,2
286,2022-11-14T04:45:00,3.1,北西,5.1,北西,11.7,78.1,0,0.5,0.5,2
287,2022-11-14T04:46:00,3.1,北西,5.1,北西,11.7,77.6,0,0.5,0.5,2
288,2022-11-14T04:47:00,3,北西,5.1,北西,11.5,78.7,0,0.5,0.5,2
289,2022-11-14T04:48:00,3,北西,5.2,北北西,11.5,80.2,0,0.5,0.5,2
290,2022-11-14T04:49:00,3.1,北西,5.7,北北西,11.6,79.9,0,0.5,0.5,2
291,2022-11-14T04:50:00,3.1,北西,5.7,北北西,11.5,80,0,0.5,0.5,2
292,2022-11-14T04:51:00,2.9,北西,5.7,北北西,11.5,80.8,0,0.5,0.5,2
293,2022-11-14T04:52:00,2.8,北西,5.7,北北西,11.6,80.5,0,0.5,0.5,2
294,2022-11-14T04:53:00,2.8,北西,5.7,北北西,11.7,79.2,0,0.5,0.5,2
295,2022-11-14T04:54:00,2.8,北西,5.7,北北西,11.6,78.8,0,0.5,0.5,2
296,2022-11-14T04:55:00,2.8,北西,5.7,北北西,11.6,79.4,0,0.5,0.5,2
297,2022-11-14T04:56:00,2.7,北西,5.7,北北西,11.4,79.9,0,0.5,0.5,2
298,2022-11-14T04:57:00,2.7,北西,5.7,北北西,11.2,81.8,0,0.5,0.5,2
299,2022-11-14T04:58:00,2.6,北北西,5.7,北北西,11,84,0,0.5,0.5,2
300,2022-11-14T04:59:00,2.5,北北西,5.4,北西,10.9,85.7,0,0.5,0.5,2
301,2022-11-14T05:00:00,2.4,北北西,3.5,北北西,10.9,86.7,0,0.5,0.5,2
302,2022-11-14T05:01:00,2.3,北北西,3.5,北北西,10.9,87.4,0,0.5,0.5,2
303,2022-11-14T05:02:00,2.4,北北西,3.5,北北西,11,88,0,0,0.5,2
304,2022-11-14T05:03:00,2.3,北北西,3.5,北北西,11.1,87.7,0,0,0.5,2
305,2022-11-14T05:04:00,2.3,北北西,3.5,北北西,11.1,87,0,0,0.5,2
306,2022-11-14T05:05:00,2.3,北,3.4,北,11.1,86.5,0,0,0.5,2
307,2022-11-14T05:06:00,2.3,北,3.4,北,11,86.6,0,0,0.5,2
308,2022-11-14T05:07:00,2.4,北北西,3.6,北北西,11,87.1,0,0,0.5,2
309,2022-11-14T05:08:00,2.5,北北西,3.7,北北西,10.9,87.4,0,0,0.5,2
310,2022-11-14T05:09:00,2.4,北北西,3.7,北北西,10.9,87.8,0,0,0.5,2
311,2022-11-14T05:10:00,2.4,北北西,3.7,北北西,10.8,88.2,0,0,0.5,2
312,2022-11-14T05:11:00,2.5,北北西,3.7,北北西,10.9,88.4,0,0,0.5,2
313,2022-11-14T05:12:00,2.5,北北西,3.7,北北西,11.1,88,0,0,0.5,2
314,2022-11-14T05:13:00,2.6,北北西,4.2,北北西,11.1,87.1,0,0,0.5,2
315,2022-11-14T05:14:00,2.6,北北西,4.2,北北西,11.3,85.8,0,0,0.5,2
316,2022-11-14T05:15:00,2.7,北北西,4.2,北北西,11.5,83.4,0,0,0.5,2
317,2022-11-14T05:16:00,2.7,北北西,4.2,北北西,11.4,81.9,0,0,0.5,2
318,2022-11-14T05:17:00,2.7,北北西,4.2,北北西,11.5,81.2,0,0,0.5,2
319,2022-11-14T05:18:00,2.7,北北西,4.2,北北西,11.3,81.3,0,0,0.5,2
320,2022-11-14T05:19:00,2.7,北北西,4.2,北北西,11,83,0,0,0.5,2
321,2022-11-14T05:20:00,2.7,北北西,4.2,北北西,10.9,84.5,0,0,0.5,2
322,2022-11-14T05:21:00,2.7,北北西,4.2,北北西,10.9,85.6,0,0,0.5,2
323,2022-11-14T05:22:00,2.7,北北西,4.2,北北西,10.9,86.3,0,0,0.5,2
324,2022-11-14T05:23:00,2.6,北北西,4.2,北西,10.9,86.8,0,0,0.5,2
325,2022-11-14T05:24:00,2.5,北北西,3.9,北西,10.9,87,0,0,0.5,2
326,2022-11-14T05:25:00,2.5,北北西,3.6,北西,10.9,87.3,0,0,0.5,2
327,2022-11-14T05:26:00,2.5,北北西,3.8,北北西,10.9,87.4,0,0,0.5,2
328,2022-11-14T05:27:00,2.5,北北西,3.8,北北西,11,87.2,0,0,0.5,2
329,2022-11-14T05:28:00,2.4,北北西,3.8,北北西,10.9,86.9,0,0,0.5,2
330,2022-11-14T05:29:00,2.5,北北西,4.1,北北西,10.9,86.9,0,0,0.5,2
331,2022-11-14T05:30:00,2.6,北北西,4.6,北西,10.9,86.8,0,0,0.5,2
332,2022-11-14T05:31:00,2.7,北北西,4.6,北西,11.3,86.2,0,0,0.5,2
333,2022-11-14T05:32:00,2.7,北北西,4.6,北西,11.6,82.8,0,0,0.5,2
334,2022-11-14T05:33:00,2.8,北北西,4.6,北西,11.5,80.9,0,0,0.5,2
335,2022-11-14T05:34:00,2.7,北北西,4.6,北西,11.5,80.2,0,0,0.5,2
336,2022-11-14T05:35:00,2.7,北西,4.6,北西,11.4,80,0,0,0.5,2
337,2022-11-14T05:36:00,2.7,北西,4.6,北西,11.4,79.5,0,0,0.5,2
338,2022-11-14T05:37:00,2.8,北西,4.6,北西,11.3,80.5,0,0,0.5,2
339,2022-11-14T05:38:00,2.8,北西,4.6,北西,11.2,81.6,0,0,0.5,2
340,2022-11-14T05:39:00,2.8,北西,4.6,北西,11.1,82.8,0,0,0.5,2
341,2022-11-14T05:40:00,2.7,北西,4.1,北,11.2,83.2,0,0,0.5,2
342,2022-11-14T05:41:00,2.7,北北西,4.1,北,11.2,82.7,0,0,0.5,2
343,2022-11-14T05:42:00,2.6,北北西,4.1,北,11.3,82.1,0,0,0.5,2
344,2022-11-14T05:43:00,2.6,北北西,4.1,北,11.3,82,0,0,0.5,2
345,2022-11-14T05:44:00,2.6,北北西,4.1,北,11.2,82.2,0,0,0.5,2
346,2022-11-14T05:45:00,2.7,北北西,4.1,北,11.5,81.2,0,0,0.5,2
347,2022-11-14T05:46:00,2.7,北北西,4.1,北,11.3,80,0,0,0.5,2
348,2022-11-14T05:47:00,2.7,北北西,4.1,北,11.1,81.3,0,0,0.5,2
349,2022-11-14T05:48:00,2.7,北北西,4.1,北北西,11,82.7,0,0,0.5,2
350,2022-11-14T05:49:00,2.7,北北西,4.1,北北西,10.9,83.8,0,0,0.5,2
351,2022-11-14T05:50:00,2.7,北北西,4.1,北北西,10.9,85,0,0,0.5,2
352,2022-11-14T05:51:00,2.8,北北西,4.1,北北西,10.8,85.8,0,0,0.5,2
353,2022-11-14T05:52:00,2.9,北北西,4.1,北北西,10.8,86.5,0,0,0.5,2
354,2022-11-14T05:53:00,2.9,北北西,4.1,北北西,10.9,86.8,0,0,0.5,2
355,2022-11-14T05:54:00,2.9,北北西,4,北北西,10.8,87,0,0,0.5,2
356,2022-11-14T05:55:00,2.9,北北西,4,北北西,10.9,87.2,0,0,0.5,2
357,2022-11-14T05:56:00,2.9,北北西,4,北北西,10.9,87,0,0,0.5,2
358,2022-11-14T05:57:00,2.9,北北西,4,北北西,10.9,86.7,0,0,0.5,2
359,2022-11-14T05:58:00,2.9,北北西,4,北北西,11.1,86.3,0,0,0.5,2
360,2022-11-14T05:59:00,2.8,北北西,4.1,北,11.2,85.2,0,0,0.5,2
361,2022-11-14T06:00:00,2.8,北北西,4.1,北,11.1,84.5,0,0,0.5,2
362,2022-11-14T06:01:00,2.9,北北西,4.4,北,11,84.6,0,0,0.5,2
363,2022-11-14T06:02:00,2.9,北北西,4.4,北,11.1,84.7,0,0,0.5,2
364,2022-11-14T06:03:00,2.8,北北西,4.4,北,11.2,83.7,0,0,0.5,2
365,2022-11-14T06:04:00,2.8,北北西,4.4,北,11.2,83.2,0,0,0.5,2
366,2022-11-14T06:05:00,2.7,北北西,4.4,北,11.2,82.7,0,0,0.5,2
367,2022-11-14T06:06:00,2.6,北北西,4.4,北,11.1,82.7,0,0,0.5,2
368,2022-11-14T06:07:00,2.6,北北西,4.4,北,11,83.2,0,0,0.5,2
369,2022-11-14T06:08:00,2.6,北北西,4.4,北,10.9,83.9,0,0,0.5,2
370,2022-11-14T06:09:00,2.6,北北西,4.4,北,11,84.2,0,0,0.5,2
371,2022-11-14T06:10:00,2.6,北北西,4.5,北西,11.1,84.2,0,0,0.5,2
372,2022-11-14T06:11:00,2.5,北北西,4.5,北西,11.3,82.6,0,0,0.5,2
373,2022-11-14T06:12:00,2.4,北北西,4.5,北西,11.2,81.6,0,0,0.5,2
374,2022-11-14T06:13:00,2.4,北北西,4.5,北西,11.1,82,0,0,0.5,2
375,2022-11-14T06:14:00,2.4,北北西,4.5,北西,11.2,82.3,0,0,0.5,2
376,2022-11-14T06:15:00,2.4,北北西,4.5,北西,11.1,82.3,0,0,0.5,2
377,2022-11-14T06:16:00,2.3,北北西,4.5,北西,11,82.6,0,0,0.5,2
378,2022-11-14T06:17:00,2.4,北北西,4.5,北西,11,83,0,0,0.5,2
379,2022-11-14T06:18:00,2.4,北北西,4.5,北西,11.1,83.1,0,0,0.5,2
380,2022-11-14T06:19:00,2.5,北北西,4.5,北西,11.1,82.9,0,0,0.5,2
381,2022-11-14T06:20:00,2.4,北北西,3.5,北北西,11.2,82.1,0,0,0.5,2
382,2022-11-14T06:21:00,2.5,北北西,3.5,北北西,11.2,81.4,0,0,0.5,2
383,2022-11-14T06:22:00,2.5,北北西,3.5,北北西,11.2,81,0,0,0.5,2
384,2022-11-14T06:23:00,2.5,北北西,3.6,北北西,11.1,81.6,0,0,0.5,2
385,2022-11-14T06:24:00,2.6,北北西,4.8,北北西,11.1,82.2,0,0,0.5,2
386,2022-11-14T06:25:00,2.7,北北西,4.8,北北西,11.3,81.6,0,0,0.5,2
387,2022-11-14T06:26:00,2.8,北北西,4.8,北北西,11.5,79.1,0,0,0.5,2
388,2022-11-14T06:27:00,2.8,北北西,4.8,北北西,11.6,77.8,0,0,0.5,2
389,2022-11-14T06:28:00,2.8,北北西,4.8,北北西,11.6,76.8,0,0,0.5,2
390,2022-11-14T06:29:00,2.8,北北西,4.8,北北西,11.6,76.4,0,0,0.5,2
391,2022-11-14T06:30:00,2.8,北北西,4.8,北北西,11.3,77.4,0,0,0.5,2
392,2022-11-14T06:31:00,2.8,北北西,4.8,北北西,11.1,79.2,0,0,0.5,2
393,2022-11-14T06:32:00,2.9,北北西,4.8,北北西,11.2,80.4,0,0,0.5,2
394,2022-11-14T06:33:00,2.8,北北西,4.8,北北西,11.2,80.5,0,0,0.5,2
395,2022-11-14T06:34:00,2.7,北北西,4.7,北西,11.3,80.8,0,0,0.5,2
396,2022-11-14T06:35:00,2.6,北北西,4.5,北北西,11,80.8,0,0,0.5,2
397,2022-11-14T06:36:00,2.5,北北西,4.5,北北西,11.1,82.2,0,0,0.5,2
398,2022-11-14T06:37:00,2.6,北北西,4.5,北北西,11.1,81.9,0,0,0.5,2
399,2022-11-14T06:38:00,2.6,北北西,4.5,北北西,11.1,82,0,0,0.5,2
400,2022-11-14T06:39:00,2.7,北北西,4.5,北北西,11.3,81.2,0,0,0.5,2
401,2022-11-14T06:40:00,2.7,北北西,5.3,北西,11.4,79.8,0,0,0.5,2
402,2022-11-14T06:41:00,2.8,北北西,5.3,北西,11.7,77.6,0,0,0.5,2
403,2022-11-14T06:42:00,2.8,北北西,5.3,北西,11.8,74.9,0,0,0.5,2
404,2022-11-14T06:43:00,2.9,北西,5.3,北西,11.8,74.2,0,0,0.5,2
405,2022-11-14T06:44:00,3,北北西,5.3,北西,11.7,74,0,0,0.5,2
406,2022-11-14T06:45:00,3.1,北北西,5.3,北西,11.2,76.4,0,0,0.5,2
407,2022-11-14T06:46:00,3,北北西,5.3,北西,10.9,79.7,0,0,0.5,2
408,2022-11-14T06:47:00,3,北北西,5.3,北西,10.8,82.1,0,0,0.5,2
409,2022-11-14T06:48:00,3,北西,5.3,北西,10.8,83.6,0,0,0.5,2
410,2022-11-14T06:49:00,2.9,北西,5.3,北西,11,83.7,0,0,0.5,2